Flag for Norway Weather past 2 weeks in Finse, Norway

Now
33 °F

Chilly.


Feels Like: 27 °F
Forecast: 29 / 36 °F
Wind: 7 mph from West

Location: Finsevatn

Current Time: May 25, 2015 at 8:13:27 PM

Latest Report: May 25, 2015 at 7:00 PM


Visibility: N/A

Pressure: 29.80 "Hg

Humidity: 84%

Dew point: 29 °F

Location of FinseLocation

Historic Weather in Finse — Graph

°F

Finse temperature yesterday

Maximum temperature yesterday: 36 °F (at 4:00 PM)
Minimum temperature yesterday: 27 °F (at 1:00 AM)
Average temperature yesterday: 32 °F

Past Weeks' High & Low Weather Summary

 TemperatureHumidityPressure
High41 °F (May 15, 1:00 PM)96% (May 13, 6:00 AM)30.16 "Hg (May 13, 6:00 AM)
Low14 °F (May 15, 6:00 AM)38% (May 15, 1:00 PM)29.35 "Hg (May 19, 10:00 AM)
Average32 °F81%29.81 "Hg
* Reported May 10 6:00 PM — May 25 6:00 PM, Finse, Weather by CustomWeather, © 2015

Note: Actual official high and low records may vary slightly from our data, if they occured in-between our weather recording intervals... More about our weather records

Advertising

Finse weather history for previous 24 hours

 ConditionsComfort  
Time TempWeatherWind HumidityBarometerVisibility
6:00 PM
Mon, May 25
33 °FChilly.7 mph81%29.79 "HgN/A
5:00 PM34 °FChilly.7 mph79%29.78 "HgN/A
4:00 PM34 °FChilly.6 mph80%29.79 "HgN/A
3:00 PM34 °FChilly.6 mph78%29.78 "HgN/A
2:00 PM33 °FChilly.7 mph81%29.78 "HgN/A
1:00 PM33 °FChilly.7 mph79%29.78 "HgN/A
12:00 PM33 °FChilly.8 mph78%29.77 "HgN/A
11:00 AM33 °FChilly.8 mph81%29.76 "HgN/A
10:00 AM33 °FChilly.7 mph84%29.76 "HgN/A
9:00 AM32 °FChilly.6 mph86%29.75 "HgN/A
8:00 AM32 °FChilly.6 mph87%29.75 "HgN/A
7:00 AM31 °FChilly.6 mph89%29.75 "HgN/A
6:00 AM31 °FChilly.7 mph90%29.75 "HgN/A
4:00 AM31 °FChilly.7 mph92%29.75 "HgN/A
3:00 AM31 °FChilly.5 mph91%29.76 "HgN/A
2:00 AM31 °FChilly.5 mph92%29.77 "HgN/A
1:00 AM31 °FChilly.8 mph90%29.78 "HgN/A
12:00 AM30 °FChilly.6 mph93%29.80 "HgN/A
10:00 PM
Sun, May 24
32 °FChilly.8 mph93%29.77 "HgN/A
9:00 PM34 °FChilly.8 mph91%29.75 "HgN/A
8:00 PM35 °FChilly.5 mph90%29.73 "HgN/A
Weather by CustomWeather, © 2015

See weather overviewHow to use our weather pages